This demonstration page uses our WeatherBlox Daily Observations layout. Learn more.

Left ArrowRight Arrow

Hourly Observations for June 21, 2017

Temp ( °F °C ) Dew Point ( °F °C ) Humidity (%) Winds ( mph kmh ) Pressure ( in mb ) Visibility ( mi km ) Precip ( " mm )
12:59 am 00:59 Cloudy 73 22.8 67 19.4 81 81 SW 8 13 30.05 1018 10 16 0.00 0.00
1:59 am 01:59 Cloudy 73 22.8 68 20 84 84 SW 10 17 30.05 1018 10 16 0.00 0.00
2:59 am 02:59 Cloudy 73 22.8 68 20 84 84 SW 8 13 30.04 1017 9 14 0.00 0.00
3:59 am 03:59 Cloudy 73 22.8 68 20 84 84 WSW 7 11 30.05 1018 9 14 0.00 0.03
4:59 am 04:59 Cloudy 72 22.2 67 19.4 84 84 WSW 8 13 30.05 1018 8 13 0.00 0.03
5:21 am 05:21 Cloudy with Rain 72 22.2 68 20 87 87 Calm 30.06 1018 3 4 0.04 1.02
5:30 am 05:30 Cloudy with Light Rain 71 21.7 67 19.4 87 87 S 6 9 30.03 1017 6 10 0.04 1.02
5:59 am 05:59 Cloudy with Rain 72 22.2 69 20.6 91 91 SW 6 9 30.06 1018 3 4 0.08 2.03
6:10 am 06:10 Cloudy with Light Rain 71 21.7 68 20 90 90 WSW 9 15 30.06 1018 3 5 0.04 1.02
6:23 am 06:23 Cloudy with Rain 70 21.1 66 18.9 87 87 W 8 13 30.06 1018 2 3 0.10 2.54
6:50 am 06:50 Cloudy with Light Rain 69 20.6 65 18.3 87 87 Calm 30.06 1018 3 5 0.14 3.56
6:59 am 06:59 Cloudy with Light Rain 69 20.6 66 18.9 90 90 SW 3 6 30.07 1018 3 5 0.15 3.81
7:27 am 07:27 Cloudy with Light Rain 71 21.7 67 19.4 87 87 WSW 7 11 30.09 1019 3 5 0.04 1.02
7:59 am 07:59 Cloudy with Light Rain 70 21.1 66 18.9 87 87 SW 5 7 30.07 1018 7 11 0.09 2.29
8:59 am 08:59 Mostly Cloudy 71 21.7 66 18.9 84 84 WSW 7 11 30.09 1019 10 16 0.00 0.03
9:59 am 09:59 Mostly Cloudy with Light Rain 73 22.8 67 19.4 81 81 SW 9 15 30.08 1019 10 16 0.00 0.03
10:59 am 10:59 Mostly Cloudy 74 23.3 68 20 82 82 SW 7 11 30.08 1019 10 16 0.00 0.03
11:59 am 11:59 Mostly Cloudy 76 24.4 67 19.4 74 74 SW 12 19 30.08 1019 10 16 0.00 0.00
12:59 pm 12:59 Mostly Cloudy 79 26.1 66 18.9 65 65 SW 10 17 30.06 1018 10 16 0.00 0.00
1:59 pm 13:59 Partly Cloudy 81 27.2 66 18.9 61 61 SW 9 15 30.04 1017 10 16 0.00 0.00
2:59 pm 14:59 Partly Cloudy 84 28.9 68 20 59 59 SW 9 15 30.02 1017 10 16 0.00 0.00
3:59 pm 15:59 Partly Cloudy 85 29.4 68 20 57 57 SW 9 15 30.01 1016 10 16 0.00 0.00
4:59 pm 16:59 Partly Cloudy 85 29.4 69 20.6 59 59 SW 9 15 30.01 1016 10 16 0.00 0.00
5:59 pm 17:59 Partly Cloudy 85 29.4 66 18.9 53 53 W 12 19 30.01 1016 10 16 0.00 0.00
6:59 pm 18:59 Mostly Cloudy 82 27.8 68 20 63 63 SW 7 11 30.03 1017 10 16 0.00 0.00
7:59 pm 19:59 Mostly Cloudy 80 26.7 69 20.6 69 69 SSW 8 13 30.01 1016 10 16 0.00 0.00
8:59 pm 20:59 Mostly Cloudy 79 26.1 70 21.1 74 74 SW 7 11 30.03 1017 10 16 0.00 0.00
9:59 pm 21:59 Mostly Cloudy 78 25.6 53 11.7 42 42 SSW 8 13 30.04 1017 10 16 0.00 0.00
10:59 pm 22:59 Mostly Cloudy 78 25.6 72 22.2 82 82 SSW 9 15 30.04 1017 10 16 0.00 0.00
11:59 pm 23:59 Mostly Cloudy 77 25 71 21.7 82 82 SSW 7 11 30.04 1017 10 16 0.00 0.00

Powered by AerisWeather